STARLINK-31870, 59787

Orbit data source: Space-Track

STARLINK-31870, 59787 is a payload satellite owned by SpaceX/Seattle (US) in LEO that was launched on Sat, 18 May 2024 UTC via an FALCON 9 launch vehicle from the Air Force Eastern Test Range (AFETR). Payload-class satellites include a variety of spacecraft equipped with specific instruments for various scientific and technological missions. These include communications satellites like Starlink; space stations such as the ISS; scientific satellites like the Hubble; Earth observation satellites from companies like Planet Labs, Umbra, and HawkEye 360; GPS; miniature CubeSats for education and research; and military/defense satellites.

Loading next visibility...
Identifier
59787, 2024-093F
Orbit
LEO
Country
Flag of USUS
Related business
Manufacturer
SpaceX/Seattle
Mission
Operational Commercial Communications
Bus & Motor
STARLINK V2M, Unknown motor
Mass
730 kg wet, ~700 kg dry
Launch date (UTC)
2024-05-18 (2 years ago)
Launch vehicle
FALCON 9
Launch site
Air Force Eastern Test Range (AFETR)
Object type
Payload
Rocket body
Debris
Shape & HBR
Box + 2 Pan, 17.7 m
Radar Cross Section
33.884 m², Large (>1 m²)

Expand to show TLE details & history
Last TLE update: 8 hours ago

TLE from 8 hours ago
0 STARLINK-31870
1 59787U 24093F   26036.28258706 -.00001721  00000-0 -53024-4 0  9990
2 59787  43.0039  31.5318 0001819 280.8453  79.2194 15.27568297 97748
Epoch: 2026-02-05T06:46Z
TLE epoch observation values (Epoch: 2026-02-05T06:46:55.521Z)
Latitude
-0.00003°
Longitude
154.36338°
Altitude
482.627 km
Speed
7.626 km/s
True Right ascension
02h 06m 07s
True Declination
0° 00' 00"
Sunlit
Object was in daylight at epoch
Visualization orbit readout
Latitude
Unknown
Longitude
Unknown
Altitude
Unknown
Speed
Unknown
Apparent Right ascension
Unknown
Apparent Declination
Unknown
Sunlit
N/A
Visualization observer readout
Local Sidereal Time
16:29:36
Azimuth
Unknown
Elevation
Unknown
Doppler factor
Unknown
Orbital elements
Apogee altitude
486.277 km
Perigee altitude
483.78 km
Semi-major axis
6,863.166 km
Eccentricity
0.00018
Inclination
43.0039°
RAAN
31.5318°
Arg. of periapsis
280.8453°
True anomaly
79.23988°
Mean anomaly
79.2194°
Eccentric anomaly
79.22964°
Mean motion
3.8173 °/min
Orbital period
94.31 mins
BSTAR
-0.000053024
Loading maneuver chart data...
Computing Atmospheric mass density...
Loading historical data...
Loading historical data...
Loading historical data...
Loading historical data...
Loading historical data...
Loading historical data...
Loading historical data...

Documentation

Showing up to 5 results
|